Flag for Germany Weather past 2 weeks in Nuremberg, Bavaria, Germany

Now
55 °F

Passing clouds.


Feels Like: 55 °F
Forecast: 55 / 77 °F
Wind: 2 mph from North

Location: Nuernberg

Current Time: Sep 3, 2014 at 6:36:41 AM

Latest Report: Sep 3, 2014 at 6:20 AM


Visibility: N/A

Pressure: 30.15 "Hg

Humidity: 94%

Dew point: 54 °F

Location of NurembergLocation

Historic Weather in Nuremberg — Graph

°F

Nuremberg temperature yesterday

Maximum temperature yesterday: 63 °F (at 2:50 PM)
Minimum temperature yesterday: 52 °F (at 6:20 AM)
Average temperature yesterday: 57 °F

Past Weeks' High & Low Weather Summary

 TemperatureHumidityPressure
High73 °F (Aug 28, 4:20 PM)100% (Aug 19, 5:20 AM)30.18 "Hg (Aug 19, 5:20 AM)
Low41 °F (Aug 25, 6:20 AM)35% (Aug 22, 2:50 PM)29.68 "Hg (Aug 26, 6:50 AM)
Average58 °F79%30.01 "Hg
* Reported Aug 19 5:20 AM — Sep 3 5:20 AM, Nuremberg, Weather by CustomWeather, © 2014

Note: Actual official high and low records may vary slightly from our data, if they occured in-between our weather recording intervals... More about our weather records

Advertising

Nuremberg weather history for previous 24 hours

 ConditionsComfort  
Time TempWeatherWind HumidityBarometerVisibility
5:20 AM
Sep 3
55 °FOvercast.3 mph94%30.15 "HgN/A
4:50 AM55 °FOvercast.2 mph94%30.15 "HgN/A
4:20 AM55 °FOvercast.3 mph94%30.15 "HgN/A
3:50 AM55 °FPassing clouds.2 mph94%30.15 "HgN/A
3:20 AM55 °FPassing clouds.2 mph94%30.15 "HgN/A
2:50 AM57 °FPassing clouds.2 mph88%30.15 "HgN/A
2:20 AM57 °FPartly cloudy.2 mph94%30.15 "HgN/A
1:50 AM57 °FPartly cloudy.2 mph94%30.15 "HgN/A
1:20 AM57 °FPartly cloudy.2 mph100%30.15 "HgN/A
12:50 AM57 °FPartly cloudy.2 mph100%30.15 "HgN/A
12:20 AM57 °FPartly cloudy.2 mph100%30.15 "HgN/A
11:50 PM
Sep 2
57 °FPartly cloudy.1 mph100%30.15 "HgN/A
11:20 PM57 °FPartly cloudy.2 mph100%30.18 "HgN/A
10:50 PM59 °FPartly cloudy.1 mph94%30.18 "HgN/A
10:20 PM59 °FPartly cloudy.2 mph94%30.18 "HgN/A
9:50 PM59 °FPartly cloudy.2 mph94%30.15 "HgN/A
9:20 PM59 °FPassing clouds.2 mph94%30.15 "HgN/A
8:50 PM59 °FPartly sunny.3 mph94%30.15 "HgN/A
8:20 PM59 °FLight rain. Partly sunny.2 mph94%30.15 "HgN/A
7:50 PM61 °FPartly sunny.1 mph88%30.15 "HgN/A
7:20 PM61 °FPartly sunny.2 mph88%30.12 "HgN/A
6:50 PM61 °FBroken clouds.3 mph88%30.12 "HgN/A
6:20 PM61 °FBroken clouds.3 mph88%30.12 "HgN/A
5:50 PM63 °FScattered showers. Broken clouds.3 mph83%30.12 "HgN/A
5:20 PM63 °FBroken clouds.3 mph77%30.12 "HgN/A
4:50 PM63 °FBroken clouds.3 mph77%30.12 "HgN/A
4:20 PM63 °FBroken clouds.5 mph77%30.12 "HgN/A
3:20 PM63 °FScattered clouds.6 mph77%30.12 "HgN/A
2:50 PM63 °FScattered clouds.5 mph77%30.12 "HgN/A
2:20 PM61 °FBroken clouds.7 mph83%30.12 "HgN/A
1:50 PM61 °FBroken clouds.5 mph83%30.12 "HgN/A
1:20 PM61 °FBroken clouds.3 mph83%30.12 "HgN/A
12:50 PM59 °FBroken clouds.3 mph88%30.12 "HgN/A
12:20 PM59 °FBroken clouds.2 mph88%30.12 "HgN/A
11:50 AM59 °FBroken clouds.5 mph88%30.12 "HgN/A
11:20 AM57 °FCool.5 mph94%30.12 "HgN/A
10:50 AM57 °FBroken clouds.3 mph94%30.12 "Hg6 mi
10:20 AM55 °FSprinkles. Broken clouds.3 mph94%30.12 "Hg4 mi
9:50 AM57 °FPartly sunny.3 mph88%30.12 "Hg6 mi
9:20 AM57 °FPartly sunny.2 mph88%30.12 "HgN/A
8:50 AM55 °FBroken clouds.1 mph94%30.12 "Hg6 mi
8:20 AM55 °FBroken clouds.1 mph94%30.12 "HgN/A
7:50 AM54 °FPartly sunny.2 mph100%30.12 "Hg6 mi
7:20 AM52 °FFog.2 mph100%30.12 "HgN/A
6:50 AM52 °FFog.1 mph100%30.12 "HgN/A
6:20 AM52 °FClear.1 mph100%30.12 "Hg6 mi
Weather by CustomWeather, © 2014

See weather overviewHow to use our weather pages